Tucson, AZ

4:41 PM MST on May 24, 2018 (GMT -0700)
Tucson International

Weather History for KTUS - June, 2014

Change the Weather History Date:

Saturday, June 7, 2014

  Actual Average Record
Temperature  
Mean Temperature 86 °F 83 °F  
Max Temperature 103 °F 99 °F 109 °F (1985)
Min Temperature 68 °F 67 °F 46 °F (1925)
Degree Days  
Heating Degree Days 0 0  
Month to date heating degree days 0 0  
Since 1 June heating degree days 0 0  
Since 1 July heating degree days 899 1511  
Cooling Degree Days 21 18  
Month to date cooling degree days 158 118  
Year to date cooling degree days 761 620  
Since 1 June cooling degree days 158 118  
Growing Degree Days 35 (Base 50)    
Moisture  
Dew Point 19 °F    
Average Humidity 10    
Maximum Humidity 17    
Minimum Humidity 3    
Precipitation  
Precipitation 0.00 in 0.01 in 0.17 in (1900)
Month to date precipitation 0.00 0.03  
Year to date precipitation 0.61 3.10  
Sea Level Pressure  
Sea Level Pressure 29.65 in    
Wind  
Wind Speed 7 mph (SW)    
Max Wind Speed 20 mph    
Max Gust Speed 28 mph    
Visibility 10 miles    
Events      
T = Trace of Precipitation, MM = Missing Value Source: NWS Daily Summary

Daily Weather History Graph

Daily Weather History Graph

Search for Another Location

Airport or City:

Astronomy

Jun. 07, 2014 Rise Set
Actual Time 5:17 AM MST 7:28 PM MST
Civil Twilight 4:48 AM MST 7:56 PM MST
Nautical Twilight 4:14 AM MST 8:30 PM MST
Astronomical Twilight 3:37 AM MST 9:07 PM MST
Moon 2:07 PM MST (6/7) 1:21 AM MST (6/7)
Length of Visible Light 15h 07m
Length of Day
14h 11m
Waxing Gibbous, 69% of the Moon is Illuminated
Jun 7
Waxing Gibbous
Jun 12
Full
Jun 19
Last Quarter
Jun 27
New
Jul 5
First Quarter

Hourly Weather History & Observations

Time (MST) Temp. Dew Point Humidity Pressure Visibility Wind Dir Wind Speed Gust Speed Precip Events Conditions
12:53 AM 77.0 °F 9.0 °F 7% 29.65 in 10.0 mi SE 5.8 mph - N/A   Clear
1:53 AM 73.0 °F 10.9 °F 9% 29.65 in 10.0 mi SSE 8.1 mph - N/A   Clear
2:53 AM 72.0 °F 15.1 °F 11% 29.65 in 10.0 mi SSE 6.9 mph - N/A   Clear
3:53 AM 71.1 °F 12.0 °F 10% 29.66 in 10.0 mi SE 9.2 mph - N/A   Clear
5:53 AM 69.1 °F 17.1 °F 14% 29.69 in 10.0 mi SE 9.2 mph - N/A   Clear
6:53 AM 75.0 °F 18.0 °F 12% 29.69 in 10.0 mi SSE 6.9 mph - N/A   Clear
7:53 AM 81.0 °F 18.0 °F 10% 29.70 in 10.0 mi SSE 5.8 mph - N/A   Clear
8:53 AM 89.1 °F 17.1 °F 7% 29.70 in 10.0 mi South 6.9 mph - N/A   Clear
9:53 AM 93.0 °F 9.0 °F 4% 29.68 in 10.0 mi Calm Calm - N/A   Clear
10:53 AM 95.0 °F 17.1 °F 6% 29.68 in 10.0 mi Variable 3.5 mph - N/A   Clear
11:53 AM 98.1 °F 18.0 °F 6% 29.66 in 10.0 mi Variable 6.9 mph - N/A   Clear
12:53 PM 99.0 °F 19.9 °F 6% 29.65 in 10.0 mi East 4.6 mph - N/A   Clear
1:53 PM 100.9 °F 21.9 °F 6% 29.63 in 10.0 mi North - - N/A   Clear
2:53 PM 100.9 °F 28.0 °F 8% 29.61 in 10.0 mi NW 12.7 mph 27.6 mph N/A   Clear
3:53 PM 102.0 °F 18.0 °F 5% 29.60 in 10.0 mi West 16.1 mph 20.7 mph N/A   Clear
4:53 PM 100.9 °F 14.0 °F 4% 29.60 in 10.0 mi West 11.5 mph 20.7 mph N/A   Clear
5:53 PM 100.0 °F 8.1 °F 4% 29.59 in 10.0 mi WSW 9.2 mph - N/A   Clear
6:53 PM 98.1 °F 12.0 °F 4% 29.60 in 10.0 mi WSW 9.2 mph - N/A   Clear
7:53 PM 91.9 °F 19.0 °F 7% 29.61 in 10.0 mi West 6.9 mph - N/A   Clear
8:53 PM 91.0 °F 30.0 °F 11% 29.63 in 10.0 mi West 8.1 mph - N/A   Clear
9:53 PM 88.0 °F 37.0 °F 16% 29.65 in 10.0 mi NW 5.8 mph - N/A   Clear
10:53 PM 84.0 °F 36.0 °F 18% 29.66 in 10.0 mi West 4.6 mph - N/A   Clear
11:53 PM 82.9 °F 33.1 °F 17% 29.65 in 10.0 mi West 3.5 mph - N/A   Clear